EW7157 Weather Reports


Display with metric or nautical units.
time (UTC)temp
F
wind
direction
speed
MPH
gust
MPH
rain 1hr
in
rain 24hr
in
rain mn
in
humidity
%
barometer
mb
20260903105225 69 315 0.0 0.0 0.01 0.65 0.63 97 1039.0
20260903104226 69 315 0.0 0.0 0.02 0.65 0.63 96 1038.9
20260903103228 69 315 0.0 0.0 0.03 0.65 0.63 97 1038.5
20260903102227 69 337 0.0 0.0 0.06 0.65 0.63 97 1038.4
20260903101326 69 337 0.0 0.0 0.08 0.65 0.63 96 1038.5
20260903100326 69 337 0.0 0.0 0.11 0.65 0.63 97 1038.7
20260903095326 69 360 0.0 0.0 0.13 0.64 0.62 97 1038.0
20260903094326 69 45 0.0 0.0 0.13 0.63 0.61 97 1038.3
20260903093326 69 135 0.0 0.0 0.15 0.62 0.60 97 1038.7
20260903092328 69 135 0.0 0.0 0.17 0.59 0.57 95 1039.1
20260903091327 69 135 0.0 0.0 0.15 0.57 0.55 96 1038.8
20260903090426 69 135 0.0 0.0 0.12 0.54 0.52 96 1038.5
20260903085425 69 135 0.0 0.0 0.10 0.51 0.49 96 1039.2
20260903083426 69 135 0.0 0.0 0.06 0.47 0.45 96 1040.0
20260903083328 69 135 0.0 0.0 0.06 0.47 0.44 96 1040.0
20260903082427 69 135 0.0 0.0 0.01 0.42 0.40 95 1040.5
20260903081427 69 135 0.0 0.0 0.01 0.42 0.40 96 1039.8
20260903081326 69 135 0.0 0.0 0.01 0.42 0.40 96 1039.6
20260903081225 69 135 0.0 0.0 0.01 0.42 0.40 96 1039.5
20260903080225 69 135 0.0 0.0 0.00 0.41 0.39 96 1040.0
20260903075224 68 135 0.0 0.0 0.00 0.41 0.39 95 1039.9
20260903075126 68 135 0.0 0.0 0.00 0.41 0.39 95 1039.9
20260903074126 68 135 0.0 0.0 0.00 0.41 0.39 94 1039.6
20260903073225 68 135 0.0 0.0 0.01 0.41 0.39 94 1039.4
20260903073125 68 135 0.0 0.0 0.01 0.41 0.39 94 1039.4
20260903072127 68 135 0.0 0.0 0.01 0.41 0.39 95 1039.3
20260903071225 68 135 0.0 0.0 0.04 0.41 0.39 95 1039.3
20260903065227 69 135 0.0 0.0 0.35 0.41 0.39 94 1039.1
20260903065125 69 135 0.0 0.0 0.36 0.41 0.39 95 1039.1
20260903063227 69 135 0.0 0.0 0.37 0.40 0.38 94 1039.7
20260903062226 69 135 0.0 0.0 0.38 0.40 0.38 93 1039.8
20260903061227 69 135 0.0 0.0 0.35 0.37 0.35 93 1039.2
20260903061125 69 135 0.0 0.0 0.35 0.37 0.35 94 1039.2
20260903060128 69 135 0.0 0.0 0.28 0.31 0.27 93 1040.2
20260903055126 69 135 0.0 0.0 0.03 0.05 0.03 93 1041.8
20260903055028 69 135 0.0 0.0 0.03 0.05 0.02 93 1041.7
20260903053127 70 360 0.0 0.0 0.01 0.03 0.01 92 1040.6
20260903052127 70 360 0.0 0.0 0.00 0.02 0.00 91 1040.6
20260903044126 70 360 0.0 0.0 0.00 0.02 0.00 92 1040.2
20260903043224 70 360 0.0 0.0 0.00 0.02 0.00 92 1040.3
20260903042227 70 360 0.0 0.0 0.00 0.02 0.00 92 1040.4
20260903041228 70 360 0.0 0.0 0.00 0.02 0.00 91 1040.5
20260903040226 70 360 0.0 0.0 0.00 0.02 0.00 92 1040.7
20260903035324 70 360 0.0 0.0 0.00 0.02 0.02 92 1040.8
20260903034325 70 360 0.0 0.0 0.00 0.02 0.02 93 1040.9
20260903033423 70 360 0.0 0.0 0.00 0.02 0.02 93 1041.2
20260903032423 70 360 0.0 0.0 0.00 0.02 0.02 93 1040.8
20260903031426 70 5 0.0 0.0 0.00 0.02 0.02 92 1040.4
20260903030524 70 45 0.0 0.0 0.00 0.02 0.02 93 1040.6
20260903022525 70 315 0.0 0.0 0.00 0.02 0.02 92 1040.9
20260903021526 70 315 0.0 0.0 0.00 0.02 0.02 92 1040.9
20260903015623 70 315 0.0 0.0 0.00 0.02 0.02 91 1040.3
20260903014626 70 315 0.0 0.0 0.00 0.02 0.02 91 1040.3
20260903013723 70 315 0.0 0.0 0.00 0.02 0.02 91 1040.4
20260903012725 70 315 0.0 0.0 0.00 0.02 0.02 90 1040.5
20260903011726 70 298 0.0 0.0 0.00 0.02 0.02 90 1040.7
20260903005824 70 292 0.0 0.0 0.00 0.03 0.02 91 1040.8
20260903004824 70 292 0.0 0.0 0.00 0.03 0.02 91 1040.8
20260903003825 70 292 0.0 0.0 0.00 0.03 0.02 90 1040.8
20260903002825 70 292 0.0 0.0 0.00 0.04 0.02 90 1040.5
20260903001824 70 292 0.0 0.0 0.00 0.04 0.02 91 1040.5
20260903000825 71 270 0.0 0.0 0.00 0.04 0.02 91 1040.3
20260902234923 71 270 0.0 0.0 0.00 0.04 0.02 91 1040.2
20260902233823 71 270 0.0 0.0 0.00 0.04 0.02 90 1040.3
20260902232922 71 270 0.0 0.0 0.00 0.04 0.02 90 1040.3
20260902231924 71 270 0.0 0.0 0.00 0.04 0.02 90 1040.2
20260902231023 71 270 0.0 0.0 0.00 0.04 0.02 90 1040.2
20260902230023 71 270 0.0 0.0 0.00 0.04 0.02 90 1040.4
20260902225123 71 270 0.0 0.0 0.00 0.04 0.02 90 1040.5
20260902224125 71 270 0.0 0.0 0.00 0.04 0.02 90 1040.6
20260902223125 71 270 0.0 0.0 0.00 0.04 0.02 91 1040.7
20260902221127 71 315 0.0 0.0 0.00 0.04 0.02 90 1041.1
20260902221025 71 315 0.0 0.0 0.00 0.04 0.02 91 1041.1
20260902214123 71 315 0.0 0.0 0.00 0.04 0.02 91 1040.9
20260902213125 71 315 0.0 0.0 0.00 0.04 0.02 90 1040.7
20260902212140 71 315 0.0 0.0 0.00 0.04 0.02 91 1040.4
20260902204224 72 360 0.0 0.0 0.00 0.04 0.02 90 1040.7
20260902204123 72 360 0.0 0.0 0.00 0.04 0.02 91 1040.7
20260902203125 72 337 0.0 0.0 0.00 0.04 0.02 92 1040.7
20260902202224 71 337 0.0 0.0 0.00 0.04 0.02 91 1040.6
20260902201227 71 337 0.0 0.0 0.00 0.04 0.02 93 1040.5
20260902200225 71 337 0.0 1.0 0.00 0.04 0.02 93 1040.6
20260902195226 71 360 0.0 0.0 0.00 0.04 0.02 93 1040.6
20260902193423 71 360 0.0 0.0 0.00 0.04 0.02 93 1040.8
20260902192325 71 360 0.0 0.0 0.00 0.04 0.02 92 1041.1
20260902191424 71 360 0.0 0.0 0.00 0.04 0.02 92 1041.1
20260902190523 71 360 0.0 0.0 0.00 0.04 0.02 92 1041.4
20260902185527 71 360 0.0 0.0 0.00 0.04 0.02 91 1041.4
20260902185425 71 360 0.0 0.0 0.00 0.04 0.02 90 1041.6
20260902184425 71 360 0.0 0.0 0.00 0.04 0.02 91 1041.6
20260902183524 71 360 0.0 0.0 0.00 0.04 0.02 91 1041.6
20260902182541 71 360 0.0 0.0 0.00 0.04 0.02 90 1041.8
20260902181523 71 360 0.0 0.0 0.00 0.04 0.02 90 1042.0
20260902180524 71 360 0.0 0.0 0.00 0.04 0.02 89 1041.8
20260902175523 71 360 0.0 0.0 0.00 0.04 0.02 89 1041.6
20260902173525 72 360 0.0 0.0 0.00 0.04 0.02 88 1041.7
20260902172524 72 360 0.0 0.0 0.00 0.04 0.02 88 1042.2
20260902172423 72 360 0.0 0.0 0.00 0.04 0.02 88 1042.2
20260902170425 72 360 0.0 0.0 0.00 0.04 0.02 86 1042.6
20260902165424 72 360 0.0 0.0 0.00 0.04 0.02 86 1042.8
20260902164423 72 360 0.0 0.0 0.01 0.04 0.02 87 1042.8
20260902163426 72 360 0.0 0.0 0.01 0.04 0.02 87 1042.6
20260902162427 72 360 0.0 0.0 0.01 0.04 0.02 86 1042.7
20260902161524 72 360 0.0 0.0 0.01 0.04 0.02 87 1042.4
20260902161425 72 360 0.0 0.0 0.01 0.04 0.02 87 1042.3
20260902160424 72 360 0.0 0.0 0.01 0.04 0.02 87 1042.3
20260902155424 71 360 0.0 0.0 0.02 0.04 0.01 87 1042.1
20260902154425 71 360 0.0 1.0 0.01 0.03 0.01 87 1042.3
20260902151524 71 360 0.0 0.0 0.01 0.03 0.01 88 1042.3
20260902150524 71 360 0.0 0.0 0.01 0.03 0.01 88 1042.3
20260902145524 70 360 0.0 0.0 0.00 0.02 0.00 89 1042.5
20260902144524 70 360 0.0 0.0 0.00 0.02 0.00 89 1042.6
20260902143623 70 360 0.0 0.0 0.00 0.02 0.00 89 1042.6
20260902142625 70 236 0.0 0.0 0.00 0.02 0.00 88 1042.3
20260902141624 70 225 0.0 0.0 0.00 0.02 0.00 89 1042.1
20260902140640 70 360 0.0 1.0 0.00 0.02 0.00 89 1042.3
20260902140523 70 360 0.0 0.0 0.00 0.02 0.00 90 1042.3
20260902135424 70 360 0.0 1.0 0.00 0.02 0.00 91 1042.2
20260902134523 70 360 0.0 0.0 0.00 0.02 0.00 91 1042.3
20260902133524 69 360 0.0 0.0 0.00 0.02 0.00 91 1042.2
20260902132524 69 315 0.0 0.0 0.00 0.02 0.00 92 1042.1
20260902130624 69 360 0.0 0.0 0.00 0.02 0.00 93 1041.8
20260902125623 69 315 0.0 0.0 0.00 0.02 0.00 93 1041.6
20260902124624 69 292 0.0 0.0 0.00 0.02 0.00 93 1041.8
20260902122625 68 270 0.0 0.0 0.00 0.02 0.00 94 1041.6
20260902121626 68 270 0.0 0.0 0.00 0.02 0.00 93 1041.5
20260902121524 68 270 0.0 0.0 0.00 0.02 0.00 94 1041.6
20260902120525 68 90 0.0 0.0 0.00 0.02 0.00 94 1041.5
20260902114523 68 360 0.0 0.0 0.00 0.02 0.00 95 1041.6
20260902113523 68 225 0.0 0.0 0.00 0.02 0.00 95 1041.5
20260902112524 68 225 0.0 0.0 0.00 0.02 0.00 95 1041.4
20260902110524 68 225 0.0 0.0 0.00 0.02 0.00 95 1041.5
20260902105524 68 360 0.0 0.0 0.00 0.02 0.00 95 1041.5